owner,sensor,date,latitude,longitude,vertical_datum,direction_of_sea_water_velocity,sea_water_speed,upward_sea_water_velocity,qcFlag 
TABS,ioos:station:wmo:42046:1,2010-12-01T00:00:00Z,27.8903,-94.0367,2.0,196.3511119,16.09082036,-99999.0,'11111222,11111222,99999999' 
TABS,ioos:station:wmo:42046:1,2010-12-01T00:30:00Z,27.8903,-94.0367,2.0,179.4477073,18.68086722,-99999.0,'11111222,11111222,99999999' 
TABS,ioos:station:wmo:42046:1,2010-12-01T01:00:00Z,27.8903,-94.0367,2.0,190.9907545,18.67250653,-99999.0,'11111222,11111222,99999999' 
TABS,ioos:station:wmo:42046:1,2010-12-01T01:30:00Z,27.8903,-94.0367,2.0,165.543325,16.86395565,-99999.0,'11111222,11111222,99999999' 
TABS,ioos:station:wmo:42046:1,2010-12-01T02:00:00Z,27.8903,-94.0367,2.0,179.0058635,14.41216847,-99999.0,'11111222,11111222,99999999' 
TABS,ioos:station:wmo:42046:1,2010-12-01T02:30:00Z,27.8903,-94.0367,2.0,164.4690744,13.85592292,-99999.0,'11111222,11111222,99999999' 
TABS,ioos:station:wmo:42046:1,2010-12-01T03:00:00Z,27.8903,-94.0367,2.0,176.1426345,17.69007066,-99999.0,'11111222,11111222,99999999' 
TABS,ioos:station:wmo:42046:1,2010-12-01T03:30:00Z,27.8903,-94.0367,2.0,168.9117089,15.70313663,-99999.0,'11111222,11111222,99999999' 
TABS,ioos:station:wmo:42046:1,2010-12-01T04:00:00Z,27.8903,-94.0367,2.0,175.0851827,12.60634761,-99999.0,'11111222,11111222,99999999' 
TABS,ioos:station:wmo:42046:1,2010-12-01T04:30:00Z,27.8903,-94.0367,2.0,153.0701383,11.94531707,-99999.0,'11111222,11111222,99999999' 
TABS,ioos:station:wmo:42046:1,2010-12-01T05:00:00Z,27.8903,-94.0367,2.0,175.6116017,8.364520309,-99999.0,'11133222,11111222,99999999' 
TABS,ioos:station:wmo:42046:1,2010-12-01T05:30:00Z,27.8903,-94.0367,2.0,143.7781298,13.43685975,-99999.0,'11111222,11111222,99999999' 
TABS,ioos:station:wmo:42046:1,2010-12-01T06:00:00Z,27.8903,-94.0367,2.0,160.579014,9.924696469,-99999.0,'11133222,11111222,99999999' 
TABS,ioos:station:wmo:42046:1,2010-12-01T06:30:00Z,27.8903,-94.0367,2.0,153.118069,15.37096614,-99999.0,'11111222,11111222,99999999' 
TABS,ioos:station:wmo:42046:1,2010-12-01T07:00:00Z,27.8903,-94.0367,2.0,177.9996472,11.7471571,-99999.0,'11111222,11111222,99999999' 
TABS,ioos:station:wmo:42046:1,2010-12-01T07:30:00Z,27.8903,-94.0367,2.0,157.9493211,12.38599612,-99999.0,'11111222,11111222,99999999' 
TABS,ioos:station:wmo:42046:1,2010-12-01T08:00:00Z,27.8903,-94.0367,2.0,152.0003951,16.61471938,-99999.0,'11111222,11111222,99999999' 
TABS,ioos:station:wmo:42046:1,2010-12-01T08:30:00Z,27.8903,-94.0367,2.0,163.8257181,14.10841593,-99999.0,'11111222,11111222,99999999' 
TABS,ioos:station:wmo:42046:1,2010-12-01T09:00:00Z,27.8903,-94.0367,2.0,156.6244898,18.72701258,-99999.0,'11111222,11111222,99999999' 
TABS,ioos:station:wmo:42046:1,2010-12-01T09:30:00Z,27.8903,-94.0367,2.0,178.3360684,14.4660983,-99999.0,'11111222,11111222,99999999' 
TABS,ioos:station:wmo:42046:1,2010-12-01T10:00:00Z,27.8903,-94.0367,2.0,171.8993623,16.39356581,-99999.0,'11111222,11111222,99999999' 
TABS,ioos:station:wmo:42046:1,2010-12-01T10:30:00Z,27.8903,-94.0367,2.0,169.5107186,17.5228137,-99999.0,'11111222,11111222,99999999' 
TABS,ioos:station:wmo:42046:1,2010-12-01T11:00:00Z,27.8903,-94.0367,2.0,167.3793782,14.92049597,-99999.0,'11111222,11111222,99999999' 
TABS,ioos:station:wmo:42046:1,2010-12-01T11:30:00Z,27.8903,-94.0367,2.0,174.0197275,10.36641211,-99999.0,'11111222,11111222,99999999' 
TABS,ioos:station:wmo:42046:1,2010-12-01T12:00:00Z,27.8903,-94.0367,2.0,156.6325511,14.27044498,-99999.0,'11111222,11111222,99999999' 
TABS,ioos:station:wmo:42046:1,2010-12-01T12:30:00Z,27.8903,-94.0367,2.0,139.6378944,8.569912485,-99999.0,'11133222,11111222,99999999' 
TABS,ioos:station:wmo:42046:1,2010-12-01T13:00:00Z,27.8903,-94.0367,2.0,156.7855214,9.56436093,-99999.0,'11133222,11111222,99999999' 
TABS,ioos:station:wmo:42046:1,2010-12-01T13:30:00Z,27.8903,-94.0367,2.0,155.9323812,8.312653006,-99999.0,'11133222,11111222,99999999' 
TABS,ioos:station:wmo:42046:1,2010-12-01T14:00:00Z,27.8903,-94.0367,2.0,170.3931278,5.872350466,-99999.0,'11133222,11111222,99999999' 
TABS,ioos:station:wmo:42046:1,2010-12-01T14:30:00Z,27.8903,-94.0367,2.0,141.5966176,4.185498776,-99999.0,'11133222,11111222,99999999' 
TABS,ioos:station:wmo:42046:1,2010-12-01T15:00:00Z,27.8903,-94.0367,2.0,169.0905458,3.645888095,-99999.0,'11133222,11111222,99999999' 
TABS,ioos:station:wmo:42046:1,2010-12-01T15:30:00Z,27.8903,-94.0367,2.0,219.5223284,2.074222746,-99999.0,'11133222,11111222,99999999' 
TABS,ioos:station:wmo:42046:1,2010-12-01T16:00:00Z,27.8903,-94.0367,2.0,129.5857259,3.672124726,-99999.0,'11133222,11111222,99999999' 
TABS,ioos:station:wmo:42046:1,2010-12-01T16:30:00Z,27.8903,-94.0367,2.0,104.9313823,4.812494156,-99999.0,'11133222,11111222,99999999' 
TABS,ioos:station:wmo:42046:1,2010-12-01T17:00:00Z,27.8903,-94.0367,2.0,68.04479855,4.841094917,-99999.0,'11133222,11111222,99999999' 
TABS,ioos:station:wmo:42046:1,2010-12-01T17:30:00Z,27.8903,-94.0367,2.0,85.5028589,8.034737083,-99999.0,'11133222,11111222,99999999' 
TABS,ioos:station:wmo:42046:1,2010-12-01T18:00:00Z,27.8903,-94.0367,2.0,98.74614181,5.261178575,-99999.0,'11133222,11111222,99999999' 
TABS,ioos:station:wmo:42046:1,2010-12-01T18:30:00Z,27.8903,-94.0367,2.0,84.81495906,5.532639515,-99999.0,'11133222,11111222,99999999' 
TABS,ioos:station:wmo:42046:1,2010-12-01T19:00:00Z,27.8903,-94.0367,2.0,97.62905395,5.498672567,-99999.0,'11133222,11111222,99999999' 
TABS,ioos:station:wmo:42046:1,2010-12-01T19:30:00Z,27.8903,-94.0367,2.0,112.2816125,4.43084642,-99999.0,'11133222,11111222,99999999' 
TABS,ioos:station:wmo:42046:1,2010-12-01T20:00:00Z,27.8903,-94.0367,2.0,123.1321906,3.988483421,-99999.0,'11133222,11111222,99999999' 
TABS,ioos:station:wmo:42046:1,2010-12-01T20:30:00Z,27.8903,-94.0367,2.0,143.8179515,5.996432273,-99999.0,'11133222,11111222,99999999' 
TABS,ioos:station:wmo:42046:1,2010-12-01T21:00:00Z,27.8903,-94.0367,2.0,123.1717508,5.51949273,-99999.0,'11133222,11111222,99999999' 
TABS,ioos:station:wmo:42046:1,2010-12-01T21:30:00Z,27.8903,-94.0367,2.0,124.7123405,4.196975101,-99999.0,'11133222,11111222,99999999' 
TABS,ioos:station:wmo:42046:1,2010-12-01T22:00:00Z,27.8903,-94.0367,2.0,140.0289566,3.549197092,-99999.0,'11133222,11111222,99999999' 
TABS,ioos:station:wmo:42046:1,2010-12-01T22:30:00Z,27.8903,-94.0367,2.0,127.4180784,4.180191383,-99999.0,'11133222,11111222,99999999' 
TABS,ioos:station:wmo:42046:1,2010-12-01T23:00:00Z,27.8903,-94.0367,2.0,106.6069417,4.758487155,-99999.0,'11133222,11111222,99999999' 
TABS,ioos:station:wmo:42046:1,2010-12-01T23:30:00Z,27.8903,-94.0367,2.0,130.4859169,5.390732789,-99999.0,'11133222,11111222,99999999' 
TABS,ioos:station:wmo:42046:1,2010-12-02T00:00:00Z,27.8903,-94.0367,2.0,103.240489,2.968922363,-99999.0,'11133222,11111222,99999999' 
TABS,ioos:station:wmo:42046:1,2010-12-02T00:30:00Z,27.8903,-94.0367,2.0,109.8518236,4.47599151,-99999.0,'11133222,11111222,99999999' 
TABS,ioos:station:wmo:42046:1,2010-12-02T01:00:00Z,27.8903,-94.0367,2.0,71.92772011,1.99859951,-99999.0,'11133222,11111222,99999999' 
TABS,ioos:station:wmo:42046:1,2010-12-02T01:30:00Z,27.8903,-94.0367,2.0,95.41951983,3.917511966,-99999.0,'11133222,11111222,99999999' 
TABS,ioos:station:wmo:42046:1,2010-12-02T02:00:00Z,27.8903,-94.0367,2.0,81.94687517,4.211531788,-99999.0,'11133222,11111222,99999999' 
TABS,ioos:station:wmo:42046:1,2010-12-02T02:30:00Z,27.8903,-94.0367,2.0,110.71281,3.421125546,-99999.0,'11133222,11111222,99999999' 
TABS,ioos:station:wmo:42046:1,2010-12-02T03:00:00Z,27.8903,-94.0367,2.0,75.88849946,5.5370931,-99999.0,'11133222,11111222,99999999' 
TABS,ioos:station:wmo:42046:1,2010-12-02T03:30:00Z,27.8903,-94.0367,2.0,73.35829489,8.589790451,-99999.0,'11133222,11111222,99999999' 
TABS,ioos:station:wmo:42046:1,2010-12-02T04:00:00Z,27.8903,-94.0367,2.0,60.00278617,7.320601068,-99999.0,'11133222,11111222,99999999' 
TABS,ioos:station:wmo:42046:1,2010-12-02T04:30:00Z,27.8903,-94.0367,2.0,87.9985473,3.722270812,-99999.0,'11133222,11111222,99999999' 
TABS,ioos:station:wmo:42046:1,2010-12-02T05:00:00Z,27.8903,-94.0367,2.0,65.89443559,4.064443381,-99999.0,'11133222,11111222,99999999' 
TABS,ioos:station:wmo:42046:1,2010-12-02T05:30:00Z,27.8903,-94.0367,2.0,101.0817589,7.38775338,-99999.0,'11133222,11111222,99999999' 
TABS,ioos:station:wmo:42046:1,2010-12-02T06:00:00Z,27.8903,-94.0367,2.0,128.0155716,2.50049995,-99999.0,'11133222,11111222,99999999' 
TABS,ioos:station:wmo:42046:1,2010-12-02T06:30:00Z,27.8903,-94.0367,2.0,88.71025964,5.331350673,-99999.0,'11133222,11111222,99999999' 
TABS,ioos:station:wmo:42046:1,2010-12-02T07:00:00Z,27.8903,-94.0367,2.0,129.1673447,5.288251129,-99999.0,'11133222,11111222,99999999' 
TABS,ioos:station:wmo:42046:1,2010-12-02T07:30:00Z,27.8903,-94.0367,2.0,150.4784967,3.815337469,-99999.0,'11133222,11111222,99999999' 
TABS,ioos:station:wmo:42046:1,2010-12-02T08:00:00Z,27.8903,-94.0367,2.0,144.6374103,4.181447118,-99999.0,'11133222,11111222,99999999' 
TABS,ioos:station:wmo:42046:1,2010-12-02T08:30:00Z,27.8903,-94.0367,2.0,134.8687837,3.090064724,-99999.0,'11133222,11111222,99999999' 
TABS,ioos:station:wmo:42046:1,2010-12-02T09:00:00Z,27.8903,-94.0367,2.0,159.8763855,4.185510722,-99999.0,'11133222,11111222,99999999' 
TABS,ioos:station:wmo:42046:1,2010-12-02T09:30:00Z,27.8903,-94.0367,2.0,148.9404533,5.136389783,-99999.0,'11133222,11111222,99999999' 
TABS,ioos:station:wmo:42046:1,2010-12-02T10:00:00Z,27.8903,-94.0367,2.0,192.7427563,2.901465147,-99999.0,'11133222,11111222,99999999' 
TABS,ioos:station:wmo:42046:1,2010-12-02T10:30:00Z,27.8903,-94.0367,2.0,43.19137014,0.672086304,-99999.0,'11133222,11111222,99999999' 
TABS,ioos:station:wmo:42046:1,2010-12-02T11:00:00Z,27.8903,-94.0367,2.0,124.4389088,0.424381903,-99999.0,'11133222,11111222,99999999' 
TABS,ioos:station:wmo:42046:1,2010-12-02T11:30:00Z,27.8903,-94.0367,2.0,84.11676349,4.292609929,-99999.0,'11133222,11111222,99999999' 
TABS,ioos:station:wmo:42046:1,2010-12-02T12:00:00Z,27.8903,-94.0367,2.0,153.0832979,2.186915636,-99999.0,'11133222,11111222,99999999' 
TABS,ioos:station:wmo:42046:1,2010-12-02T12:30:00Z,27.8903,-94.0367,2.0,283.799874,3.521647342,-99999.0,'11133222,11111222,99999999' 
TABS,ioos:station:wmo:42046:1,2010-12-02T13:00:00Z,27.8903,-94.0367,2.0,118.388547,3.091811767,-99999.0,'11133222,11111222,99999999' 
TABS,ioos:station:wmo:42046:1,2010-12-02T13:30:00Z,27.8903,-94.0367,2.0,13.78976241,3.943665807,-99999.0,'11133222,11111222,99999999' 
TABS,ioos:station:wmo:42046:1,2010-12-02T14:00:00Z,27.8903,-94.0367,2.0,38.25610327,5.539620926,-99999.0,'11133222,11111222,99999999' 
TABS,ioos:station:wmo:42046:1,2010-12-02T14:30:00Z,27.8903,-94.0367,2.0,61.81725853,4.277066752,-99999.0,'11133222,11111222,99999999' 
TABS,ioos:station:wmo:42046:1,2010-12-02T15:00:00Z,27.8903,-94.0367,2.0,77.94432754,5.12298741,-99999.0,'11133222,11111222,99999999' 
TABS,ioos:station:wmo:42046:1,2010-12-02T15:30:00Z,27.8903,-94.0367,2.0,46.88238327,3.013901126,-99999.0,'11133222,11111222,99999999' 
TABS,ioos:station:wmo:42046:1,2010-12-02T16:00:00Z,27.8903,-94.0367,2.0,45.12201067,6.646818788,-99999.0,'11133222,11111222,99999999' 
TABS,ioos:station:wmo:42046:1,2010-12-02T16:30:00Z,27.8903,-94.0367,2.0,65.28467293,8.036143354,-99999.0,'11133222,11111222,99999999' 
TABS,ioos:station:wmo:42046:1,2010-12-02T17:00:00Z,27.8903,-94.0367,2.0,45.09705208,4.179007059,-99999.0,'11133222,11111222,99999999' 
TABS,ioos:station:wmo:42046:1,2010-12-02T17:30:00Z,27.8903,-94.0367,2.0,70.90110163,7.640575895,-99999.0,'11133222,11111222,99999999' 
TABS,ioos:station:wmo:42046:1,2010-12-02T18:00:00Z,27.8903,-94.0367,2.0,57.92917765,8.343248768,-99999.0,'11133222,11111222,99999999' 
TABS,ioos:station:wmo:42046:1,2010-12-02T18:30:00Z,27.8903,-94.0367,2.0,85.86474011,11.50996525,-99999.0,'11111222,11111222,99999999' 
TABS,ioos:station:wmo:42046:1,2010-12-02T19:00:00Z,27.8903,-94.0367,2.0,81.82747994,13.36573604,-99999.0,'11111222,11111222,99999999' 
TABS,ioos:station:wmo:42046:1,2010-12-02T19:30:00Z,27.8903,-94.0367,2.0,85.06079601,20.32547662,-99999.0,'11111222,11111222,99999999' 
TABS,ioos:station:wmo:42046:1,2010-12-02T20:00:00Z,27.8903,-94.0367,2.0,89.63593408,25.18050833,-99999.0,'11111222,11111222,99999999' 
TABS,ioos:station:wmo:42046:1,2010-12-02T20:30:00Z,27.8903,-94.0367,2.0,90.71400417,23.27180698,-99999.0,'11111222,11111222,99999999' 
TABS,ioos:station:wmo:42046:1,2010-12-02T21:00:00Z,27.8903,-94.0367,2.0,90.70641562,23.52178777,-99999.0,'11111222,11111222,99999999' 
TABS,ioos:station:wmo:42046:1,2010-12-02T21:30:00Z,27.8903,-94.0367,2.0,98.55753448,20.09370548,-99999.0,'11111222,11111222,99999999' 
TABS,ioos:station:wmo:42046:1,2010-12-02T22:00:00Z,27.8903,-94.0367,2.0,96.20403891,20.44976772,-99999.0,'11111222,11111222,99999999' 
TABS,ioos:station:wmo:42046:1,2010-12-02T22:30:00Z,27.8903,-94.0367,2.0,99.95522941,21.40225222,-99999.0,'11111222,11111222,99999999' 
TABS,ioos:station:wmo:42046:1,2010-12-02T23:00:00Z,27.8903,-94.0367,2.0,94.94513923,20.18513562,-99999.0,'11111222,11111222,99999999' 
TABS,ioos:station:wmo:42046:1,2010-12-02T23:30:00Z,27.8903,-94.0367,2.0,90.81991749,22.36228969,-99999.0,'11111222,11111222,99999999' 
TABS,ioos:station:wmo:42046:1,2010-12-03T00:00:00Z,27.8903,-94.0367,2.0,81.64271977,17.47557438,-99999.0,'11111222,11111222,99999999' 
TABS,ioos:station:wmo:42046:1,2010-12-03T00:30:00Z,27.8903,-94.0367,2.0,65.93905593,23.03113111,-99999.0,'11111222,11111222,99999999' 
TABS,ioos:station:wmo:42046:1,2010-12-03T01:00:00Z,27.8903,-94.0367,2.0,78.19838968,10.51221195,-99999.0,'11111222,11111222,99999999' 
TABS,ioos:station:wmo:42046:1,2010-12-03T01:30:00Z,27.8903,-94.0367,2.0,69.33765375,7.566723201,-99999.0,'11133222,11111222,99999999' 
TABS,ioos:station:wmo:42046:1,2010-12-03T02:00:00Z,27.8903,-94.0367,2.0,60.3972349,7.004262988,-99999.0,'11133222,11111222,99999999' 
TABS,ioos:station:wmo:42046:1,2010-12-03T02:30:00Z,27.8903,-94.0367,2.0,67.38857677,5.25384621,-99999.0,'11133222,11111222,99999999' 
TABS,ioos:station:wmo:42046:1,2010-12-03T03:00:00Z,27.8903,-94.0367,2.0,93.70994195,6.954574034,-99999.0,'11133222,11111222,99999999' 
TABS,ioos:station:wmo:42046:1,2010-12-03T03:30:00Z,27.8903,-94.0367,2.0,68.43629175,4.924682731,-99999.0,'11133222,11111222,99999999' 
TABS,ioos:station:wmo:42046:1,2010-12-03T04:00:00Z,27.8903,-94.0367,2.0,77.78244422,6.190201935,-99999.0,'11133222,11111222,99999999' 
TABS,ioos:station:wmo:42046:1,2010-12-03T04:30:00Z,27.8903,-94.0367,2.0,113.428638,5.558246126,-99999.0,'11133222,11111222,99999999' 
TABS,ioos:station:wmo:42046:1,2010-12-03T05:00:00Z,27.8903,-94.0367,2.0,132.7618935,3.078262497,-99999.0,'11133222,11111222,99999999' 
TABS,ioos:station:wmo:42046:1,2010-12-03T05:30:00Z,27.8903,-94.0367,2.0,68.91236686,1.639817063,-99999.0,'11133222,11111222,99999999' 
TABS,ioos:station:wmo:42046:1,2010-12-03T06:00:00Z,27.8903,-94.0367,2.0,126.9086911,8.842002036,-99999.0,'11133222,11111222,99999999' 
TABS,ioos:station:wmo:42046:1,2010-12-03T06:30:00Z,27.8903,-94.0367,2.0,117.7086221,9.634900103,-99999.0,'11133222,11111222,99999999' 
TABS,ioos:station:wmo:42046:1,2010-12-03T07:00:00Z,27.8903,-94.0367,2.0,108.4640342,6.220200961,-99999.0,'11133222,11111222,99999999' 
TABS,ioos:station:wmo:42046:1,2010-12-03T07:30:00Z,27.8903,-94.0367,2.0,119.1817277,6.562994743,-99999.0,'11133222,11111222,99999999' 
TABS,ioos:station:wmo:42046:1,2010-12-03T08:00:00Z,27.8903,-94.0367,2.0,123.5313487,6.010199664,-99999.0,'11133222,11111222,99999999' 
TABS,ioos:station:wmo:42046:1,2010-12-03T08:30:00Z,27.8903,-94.0367,2.0,107.3620789,4.222380845,-99999.0,'11133222,11111222,99999999' 
TABS,ioos:station:wmo:42046:1,2010-12-03T09:00:00Z,27.8903,-94.0367,2.0,161.9363253,3.902332636,-99999.0,'11133222,11111222,99999999' 
TABS,ioos:station:wmo:42046:1,2010-12-03T09:30:00Z,27.8903,-94.0367,2.0,164.515656,3.071481727,-99999.0,'11133222,11111222,99999999' 
TABS,ioos:station:wmo:42046:1,2010-12-03T10:00:00Z,27.8903,-94.0367,2.0,146.5553521,1.941468516,-99999.0,'11133222,11111222,99999999' 
TABS,ioos:station:wmo:42046:1,2010-12-03T10:30:00Z,27.8903,-94.0367,2.0,102.3463918,2.385162468,-99999.0,'11133222,11111222,99999999' 
TABS,ioos:station:wmo:42046:1,2010-12-03T11:00:00Z,27.8903,-94.0367,2.0,117.3987546,2.151325173,-99999.0,'11133222,11111222,99999999' 
TABS,ioos:station:wmo:42046:1,2010-12-03T11:30:00Z,27.8903,-94.0367,2.0,79.5006261,2.634103263,-99999.0,'11133222,11111222,99999999' 
TABS,ioos:station:wmo:42046:1,2010-12-03T12:00:00Z,27.8903,-94.0367,2.0,18.92481062,1.48,-99999.0,'11133222,11111222,99999999' 
TABS,ioos:station:wmo:42046:1,2010-12-03T12:30:00Z,27.8903,-94.0367,2.0,99.78238416,0.588557559,-99999.0,'11133222,11111222,99999999' 
TABS,ioos:station:wmo:42046:1,2010-12-03T13:00:00Z,27.8903,-94.0367,2.0,344.7264826,2.695199436,-99999.0,'11133222,11111222,99999999' 
TABS,ioos:station:wmo:42046:1,2010-12-03T13:30:00Z,27.8903,-94.0367,2.0,344.3143412,1.516476179,-99999.0,'11133222,11111222,99999999' 
TABS,ioos:station:wmo:42046:1,2010-12-03T14:00:00Z,27.8903,-94.0367,2.0,129.6329662,3.40195532,-99999.0,'11133222,11111222,99999999' 
TABS,ioos:station:wmo:42046:1,2010-12-03T14:30:00Z,27.8903,-94.0367,2.0,155.3559467,2.134408583,-99999.0,'11133222,11111222,99999999' 
TABS,ioos:station:wmo:42046:1,2010-12-03T15:00:00Z,27.8903,-94.0367,2.0,89.28234677,4.790375768,-99999.0,'11133222,11111222,99999999' 
TABS,ioos:station:wmo:42046:1,2010-12-03T15:30:00Z,27.8903,-94.0367,2.0,96.53661836,5.797689195,-99999.0,'11133222,11111222,99999999' 
TABS,ioos:station:wmo:42046:1,2010-12-03T16:00:00Z,27.8903,-94.0367,2.0,107.3216775,4.231926275,-99999.0,'11133222,11111222,99999999' 
TABS,ioos:station:wmo:42046:1,2010-12-03T16:30:00Z,27.8903,-94.0367,2.0,57.89126018,11.15649587,-99999.0,'11111222,11111222,99999999' 
TABS,ioos:station:wmo:42046:1,2010-12-03T17:00:00Z,27.8903,-94.0367,2.0,66.38977607,17.17795098,-99999.0,'11111222,11111222,99999999' 
TABS,ioos:station:wmo:42046:1,2010-12-03T17:30:00Z,27.8903,-94.0367,2.0,62.36550883,25.39721245,-99999.0,'11111222,11111222,99999999' 
TABS,ioos:station:wmo:42046:1,2010-12-03T18:00:00Z,27.8903,-94.0367,2.0,62.89299325,28.83762299,-99999.0,'11111222,11111222,99999999' 
TABS,ioos:station:wmo:42046:1,2010-12-03T18:30:00Z,27.8903,-94.0367,2.0,60.49794354,28.10404241,-99999.0,'11111222,11111222,99999999' 
TABS,ioos:station:wmo:42046:1,2010-12-03T19:00:00Z,27.8903,-94.0367,2.0,59.41584836,26.9258686,-99999.0,'11111222,11111222,99999999' 
TABS,ioos:station:wmo:42046:1,2010-12-03T19:30:00Z,27.8903,-94.0367,2.0,50.86097626,23.33630005,-99999.0,'11111222,11111222,99999999' 
TABS,ioos:station:wmo:42046:1,2010-12-03T20:00:00Z,27.8903,-94.0367,2.0,52.32050604,21.08810565,-99999.0,'11111222,11111222,99999999' 
TABS,ioos:station:wmo:42046:1,2010-12-03T20:30:00Z,27.8903,-94.0367,2.0,58.87027208,18.93695329,-99999.0,'11111222,11111222,99999999' 
TABS,ioos:station:wmo:42046:1,2010-12-03T21:00:00Z,27.8903,-94.0367,2.0,68.60244634,16.33602461,-99999.0,'11111222,11111222,99999999' 
TABS,ioos:station:wmo:42046:1,2010-12-03T21:30:00Z,27.8903,-94.0367,2.0,62.71885267,12.52295892,-99999.0,'11111222,11111222,99999999' 
TABS,ioos:station:wmo:42046:1,2010-12-03T22:00:00Z,27.8903,-94.0367,2.0,96.16744915,11.35572543,-99999.0,'11111222,11111222,99999999' 
TABS,ioos:station:wmo:42046:1,2010-12-03T22:30:00Z,27.8903,-94.0367,2.0,112.2014879,11.16798997,-99999.0,'11111222,11111222,99999999' 
TABS,ioos:station:wmo:42046:1,2010-12-03T23:00:00Z,27.8903,-94.0367,2.0,136.1996282,8.10522054,-99999.0,'11133222,11111222,99999999' 
TABS,ioos:station:wmo:42046:1,2010-12-03T23:30:00Z,27.8903,-94.0367,2.0,144.1188431,8.923328975,-99999.0,'11133222,11111222,99999999' 
TABS,ioos:station:wmo:42046:1,2010-12-04T00:00:00Z,27.8903,-94.0367,2.0,129.3315476,5.72728557,-99999.0,'11133222,11111222,99999999' 
TABS,ioos:station:wmo:42046:1,2010-12-04T00:30:00Z,27.8903,-94.0367,2.0,138.2781635,5.935267475,-99999.0,'11133222,11111222,99999999' 
TABS,ioos:station:wmo:42046:1,2010-12-04T01:00:00Z,27.8903,-94.0367,2.0,119.7936294,8.73452918,-99999.0,'11133222,11111222,99999999' 
TABS,ioos:station:wmo:42046:1,2010-12-04T01:30:00Z,27.8903,-94.0367,2.0,132.0143915,6.245158124,-99999.0,'11133222,11111222,99999999' 
TABS,ioos:station:wmo:42046:1,2010-12-04T02:00:00Z,27.8903,-94.0367,2.0,171.8081311,10.52741184,-99999.0,'11111222,11111222,99999999' 
TABS,ioos:station:wmo:42046:1,2010-12-04T02:30:00Z,27.8903,-94.0367,2.0,171.3064613,12.37213805,-99999.0,'11111222,11111222,99999999' 
TABS,ioos:station:wmo:42046:1,2010-12-04T03:00:00Z,27.8903,-94.0367,2.0,165.3430727,9.406083138,-99999.0,'11133222,11111222,99999999' 
TABS,ioos:station:wmo:42046:1,2010-12-04T03:30:00Z,27.8903,-94.0367,2.0,180.5670546,12.12059404,-99999.0,'11111222,11111222,99999999' 
TABS,ioos:station:wmo:42046:1,2010-12-04T04:00:00Z,27.8903,-94.0367,2.0,175.4376784,9.680671464,-99999.0,'11133222,11111222,99999999' 
TABS,ioos:station:wmo:42046:1,2010-12-04T04:30:00Z,27.8903,-94.0367,2.0,197.4403446,9.475610798,-99999.0,'11133222,11111222,99999999' 
TABS,ioos:station:wmo:42046:1,2010-12-04T05:00:00Z,27.8903,-94.0367,2.0,139.0046541,6.783575753,-99999.0,'11133222,11111222,99999999' 
TABS,ioos:station:wmo:42046:1,2010-12-04T05:30:00Z,27.8903,-94.0367,2.0,114.0744217,10.90890004,-99999.0,'11111222,11111222,99999999' 
TABS,ioos:station:wmo:42046:1,2010-12-04T06:00:00Z,27.8903,-94.0367,2.0,104.9210151,10.68011704,-99999.0,'11111222,11111222,99999999' 
TABS,ioos:station:wmo:42046:1,2010-12-04T06:30:00Z,27.8903,-94.0367,2.0,104.0470909,12.77192624,-99999.0,'11111222,11111222,99999999' 
TABS,ioos:station:wmo:42046:1,2010-12-04T07:00:00Z,27.8903,-94.0367,2.0,109.8551679,16.8411401,-99999.0,'11111222,11111222,99999999' 
TABS,ioos:station:wmo:42046:1,2010-12-04T07:30:00Z,27.8903,-94.0367,2.0,102.3969129,16.0236107,-99999.0,'11111222,11111222,99999999' 
TABS,ioos:station:wmo:42046:1,2010-12-04T08:00:00Z,27.8903,-94.0367,2.0,95.49231171,16.19434778,-99999.0,'11111222,11111222,99999999' 
TABS,ioos:station:wmo:42046:1,2010-12-04T08:30:00Z,27.8903,-94.0367,2.0,105.6183952,18.53436268,-99999.0,'11111222,11111222,99999999' 
TABS,ioos:station:wmo:42046:1,2010-12-04T09:00:00Z,27.8903,-94.0367,2.0,114.3506782,19.32958872,-99999.0,'11111222,11111222,99999999' 
TABS,ioos:station:wmo:42046:1,2010-12-04T09:30:00Z,27.8903,-94.0367,2.0,104.9887821,17.36067395,-99999.0,'11111222,11111222,99999999' 
TABS,ioos:station:wmo:42046:1,2010-12-04T10:00:00Z,27.8903,-94.0367,2.0,109.7487184,21.51546885,-99999.0,'11111222,11111222,99999999' 
TABS,ioos:station:wmo:42046:1,2010-12-04T10:30:00Z,27.8903,-94.0367,2.0,111.2213148,20.36068024,-99999.0,'11111222,11111222,99999999' 
TABS,ioos:station:wmo:42046:1,2010-12-04T11:00:00Z,27.8903,-94.0367,2.0,104.2194366,20.47738753,-99999.0,'11111222,11111222,99999999' 
TABS,ioos:station:wmo:42046:1,2010-12-04T11:30:00Z,27.8903,-94.0367,2.0,101.5438425,23.53609356,-99999.0,'11111222,11111222,99999999' 
TABS,ioos:station:wmo:42046:1,2010-12-04T12:00:00Z,27.8903,-94.0367,2.0,102.9238753,21.86385602,-99999.0,'11111222,11111222,99999999' 
TABS,ioos:station:wmo:42046:1,2010-12-04T12:30:00Z,27.8903,-94.0367,2.0,106.8201216,20.42377536,-99999.0,'11111222,11111222,99999999' 
TABS,ioos:station:wmo:42046:1,2010-12-04T13:00:00Z,27.8903,-94.0367,2.0,95.07457306,30.29875905,-99999.0,'11111222,11111222,99999999' 
TABS,ioos:station:wmo:42046:1,2010-12-04T13:30:00Z,27.8903,-94.0367,2.0,97.17704766,23.21186981,-99999.0,'11111222,11111222,99999999' 
TABS,ioos:station:wmo:42046:1,2010-12-04T14:00:00Z,27.8903,-94.0367,2.0,93.77901557,26.09674309,-99999.0,'11111222,11111222,99999999' 
TABS,ioos:station:wmo:42046:1,2010-12-04T14:30:00Z,27.8903,-94.0367,2.0,83.80255215,24.82508409,-99999.0,'11111222,11111222,99999999' 
TABS,ioos:station:wmo:42046:1,2010-12-04T15:00:00Z,27.8903,-94.0367,2.0,88.48030928,28.27994696,-99999.0,'11111222,11111222,99999999' 
TABS,ioos:station:wmo:42046:1,2010-12-04T15:30:00Z,27.8903,-94.0367,2.0,98.88313882,28.29944346,-99999.0,'11111222,11111222,99999999' 
TABS,ioos:station:wmo:42046:1,2010-12-04T16:00:00Z,27.8903,-94.0367,2.0,108.5378936,26.38924971,-99999.0,'11111222,11111222,99999999' 